TimeCST,TemperatureF,Dew PointF,Humidity,Sea Level PressureIn,VisibilityMPH,Wind Direction,Wind SpeedMPH,Gust SpeedMPH,PrecipitationIn,Events,Conditions,WindDirDegrees,DateUTC
12:53 AM,64.0,55.9,75,29.68,10.0,SSW,15.0,26.5,N/A,,Clear,200,2012-01-17 06:53:00
1:53 AM,64.9,53.1,65,29.72,10.0,WSW,15.0,23.0,N/A,,Clear,240,2012-01-17 07:53:00
2:10 AM,55.4,44.6,67,29.78,10.0,NW,26.5,36.8,N/A,,Partly Cloudy,310,2012-01-17 08:10:00
2:53 AM,45.0,35.1,68,29.87,10.0,NNW,16.1,26.5,N/A,,Clear,330,2012-01-17 08:53:00
3:53 AM,37.0,27.0,67,29.98,10.0,NW,18.4,-,N/A,,Clear,310,2012-01-17 09:53:00
4:53 AM,33.1,21.0,61,30.05,10.0,NW,16.1,-,N/A,,Clear,320,2012-01-17 10:53:00
5:53 AM,30.0,19.0,64,30.13,10.0,NW,16.1,-,N/A,,Clear,310,2012-01-17 11:53:00
6:53 AM,27.0,17.1,66,30.19,10.0,NW,18.4,-,N/A,,Clear,320,2012-01-17 12:53:00
7:53 AM,25.0,15.1,66,30.25,10.0,NNW,17.3,27.6,N/A,,Clear,330,2012-01-17 13:53:00
8:53 AM,26.1,14.0,60,30.30,10.0,NNW,15.0,-,N/A,,Clear,340,2012-01-17 14:53:00
9:53 AM,28.0,15.1,58,30.32,10.0,NNW,18.4,25.3,N/A,,Clear,340,2012-01-17 15:53:00
10:53 AM,30.9,15.1,52,30.35,10.0,NNW,19.6,25.3,N/A,,Clear,330,2012-01-17 16:53:00
11:53 AM,34.0,15.1,46,30.33,10.0,NNW,17.3,23.0,N/A,,Clear,330,2012-01-17 17:53:00
12:53 PM,36.0,14.0,41,30.30,10.0,NNW,17.3,-,N/A,,Clear,330,2012-01-17 18:53:00
1:53 PM,37.9,14.0,38,30.29,10.0,North,18.4,23.0,N/A,,Clear,360,2012-01-17 19:53:00
2:53 PM,39.9,15.1,36,30.30,10.0,North,17.3,23.0,N/A,,Clear,350,2012-01-17 20:53:00
3:53 PM,39.9,15.1,36,30.32,10.0,North,15.0,-,N/A,,Clear,350,2012-01-17 21:53:00
4:53 PM,37.9,15.1,39,30.33,10.0,North,15.0,-,N/A,,Clear,350,2012-01-17 22:53:00
5:53 PM,34.0,15.1,46,30.35,10.0,North,8.1,-,N/A,,Clear,350,2012-01-17 23:53:00
6:53 PM,30.9,16.0,54,30.39,10.0,NNW,6.9,-,N/A,,Clear,340,2012-01-18 00:53:00
7:53 PM,28.0,15.1,58,30.42,10.0,NNW,6.9,-,N/A,,Clear,330,2012-01-18 01:53:00
8:53 PM,27.0,15.1,61,30.42,10.0,NNW,5.8,-,N/A,,Scattered Clouds,340,2012-01-18 02:53:00
9:53 PM,25.0,15.1,66,30.43,10.0,North,5.8,-,N/A,,Partly Cloudy,350,2012-01-18 03:53:00
10:53 PM,24.1,14.0,65,30.43,10.0,NNW,5.8,-,N/A,,Clear,340,2012-01-18 04:53:00
11:53 PM,23.0,14.0,68,30.42,10.0,NW,3.5,-,N/A,,Clear,320,2012-01-18 05:53:00